Hourly Data Report for September 19, 2017

All times are specified in Local Standard Time (LST). Add 1 hour to adjust for Daylight Saving Time where and when it is observed.

ALERT CLIMATE
NUNAVUT

82°30'00.000" N
62°20'00.000" W
65.40 m
2400305
71355
ZLT

Download Data

Hourly Data (September 2017)
Hourly Data Report for September 19, 2017
Temp Definition
°C
Dew Point Temp Definition
°C
Rel Hum Definition
%
Wind Dir Definition
10's deg

Wind Spd Definition
km/h
Visibility Definition
km
Stn Press Definition
kPa
Hmdx Definition


Wind Chill Definition


Weather Definition


TIME
00:00 -14.1 -15.3 91 28 7   100.74   -19 LegendNANA
01:00 -12.7 -14.5 87 28 6   100.84   -17 LegendNANA
02:00 -13.6 -15.5 86 29 10   100.89   -20 LegendNANA
03:00 -13.0 -15.1 85 30 7   100.98   -18 LegendNANA
04:00 -13.1 -15.2 84 28 6   101.10   -17 LegendNANA
05:00 -13.1 -15.4 83 29 7   101.21   -18 LegendNANA
06:00 -14.4 -16.9 81 28 8   101.29   -20 LegendNANA
07:00 -13.1 -16.0 79 29 10   101.37   -19 LegendNANA
08:00 -13.5 -16.9 76 29 10   101.45   -19 LegendNANA
09:00 -12.5 -16.2 74 29 9   101.52   -18 LegendNANA
10:00 -12.0 -15.7 74 28 7   101.59   -16 LegendNANA
11:00 -11.9 -15.7 74 30 9   101.65   -17 LegendNANA
12:00 -11.2 -15.4 71 27 6   101.70   -15 LegendNANA
13:00 -11.4 -15.2 73 31 2   101.75   -13 LegendNANA
14:00 -11.9 -15.8 73 20 3   101.80   -14 LegendNANA
15:00 -8.9 -13.8 68   0   101.84     LegendNANA
16:00 -10.3 -15.3 67 18 4   101.86   -13 LegendNANA
17:00 -10.2 -14.6 70 24 2   101.88   -11 LegendNANA
18:00 -11.0 -15.5 69 28 9   101.90   -16 LegendNANA
19:00 -10.4 -14.9 69 22 7   101.91   -14 LegendNANA
20:00 -9.9 -14.0 71 20 3   101.92   -12 LegendNANA
21:00 -10.1 -15.0 67 28 6   101.91   -14 LegendNANA
22:00 -11.0 -15.7 68 23 3   101.88   -13 LegendNANA
23:00 -11.4 -15.7 71 24 2   101.87   -13 LegendNANA

Notes on Data Quality.

Legend

  • E = Estimated
  • M = Missing
  • NA = Not Available
  • ‡ = Partner data that is not subject to review by the National Climate Archives
Date modified: